Location: Atherton
(17.2661°S, 145.4859°E)
Time: 04:36:04
(UTC+10:00)

Hubble Space Telescope - Pass Details

Date: 15 February 2026
Orbit: 476 x 479 km, 28.5° (Epoch: 6 March)

Event Time Altitude Azimuth Distance (km) Brightness Sun altitude
Rises 19:42:17 0° 259° (W) 2,519 6.2 -12.5°
Reaches altitude 10° 19:44:54 10° 242° (WSW) 1,643 4.7 -13.1°
Maximum altitude 19:47:46 20° 192° (SSW) 1,142 2.8 -13.7°
Drops below altitude 10° 19:50:39 10° 142° (SE) 1,646 3.1 -14.4°
Enters shadow 19:51:35 - 134° (SE) 1,940 3.3 -14.6°
